G7ITT Weather Reports


Display with metric or nautical units.
time (UTC)temp
F
wind
direction
speed
MPH
gust
MPH
rain 1hr
in
rain 24hr
in
rain mn
in
humidity
%
barometer
mb
20211203224003 42 152 0.0 6.0 0.00 0.45 0.45 77 994.5
20211203223003 42 156 0.0 5.0 0.01 0.45 0.45 77 994.6
20211203222004 42 137 0.0 1.0 0.01 0.45 0.45 77 994.8
20211203221004 42 0 0.0 0.0 0.01 0.45 0.45 77 995.0
20211203220004 42 0 0.0 0.0 0.01 0.45 0.45 77 995.2
20211203215003 42 136 0.0 2.0 0.01 0.45 0.45 77 995.3
20211203214004 42 135 0.0 1.0 0.01 0.45 0.45 77 995.5
20211203213004 41 0 0.0 0.0 0.00 0.44 0.44 78 995.7
20211203212003 42 134 1.0 4.0 0.00 0.44 0.44 77 995.8
20211203211003 41 134 0.0 3.0 0.00 0.44 0.44 78 995.9
20211203210004 40 0 0.0 0.0 0.01 0.44 0.44 78 996.1
20211203205004 40 134 0.0 2.0 0.01 0.44 0.44 79 996.2
20211203204004 40 134 0.0 2.0 0.01 0.44 0.44 78 996.3
20211203203003 40 134 0.0 1.0 0.01 0.44 0.44 79 996.4
20211203202003 41 0 0.0 0.0 0.01 0.44 0.44 78 996.5
20211203201004 41 116 0.0 4.0 0.01 0.44 0.44 78 996.7
20211203200004 41 354 0.0 3.0 0.00 0.43 0.43 78 996.8
20211203195003 41 350 0.0 2.0 0.00 0.43 0.43 78 996.8
20211203194004 41 0 0.0 0.0 0.00 0.43 0.43 78 996.8
20211203193004 41 0 0.0 0.0 0.01 0.43 0.43 79 997.0
20211203192003 41 0 0.0 0.0 0.01 0.43 0.43 79 997.0
20211203191004 41 0 0.0 0.0 0.01 0.43 0.43 79 997.0
20211203190004 40 0 0.0 0.0 0.01 0.43 0.43 80 997.0
20211203185004 40 0 0.0 0.0 0.01 0.43 0.43 80 997.1
20211203184003 40 0 0.0 0.0 0.02 0.43 0.43 80 997.0
20211203183004 40 0 0.0 0.0 0.01 0.42 0.42 80 997.1
20211203182004 41 0 0.0 0.0 0.01 0.42 0.42 80 997.2
20211203181004 41 0 0.0 0.0 0.01 0.42 0.42 80 997.2
20211203180004 41 0 0.0 0.0 0.01 0.42 0.42 80 997.2
20211203175003 41 0 0.0 0.0 0.01 0.42 0.42 80 997.4
20211203174004 41 0 0.0 0.0 0.01 0.41 0.41 81 997.6
20211203173004 41 0 0.0 0.0 0.01 0.41 0.41 81 997.7
20211203172004 41 0 0.0 0.0 0.01 0.41 0.41 81 997.8
20211203171004 41 0 0.0 0.0 0.01 0.41 0.41 81 997.8
20211203170004 41 0 0.0 0.0 0.02 0.41 0.41 81 997.7
20211203165004 41 0 0.0 0.0 0.02 0.41 0.41 81 997.6
20211203164004 40 0 0.0 0.0 0.01 0.40 0.40 82 997.8
20211203163004 40 0 0.0 0.0 0.01 0.40 0.40 82 997.8
20211203162003 40 0 0.0 0.0 0.02 0.40 0.40 82 997.8
20211203161004 40 0 0.0 0.0 0.02 0.40 0.40 83 998.0
20211203160005 40 0 0.0 0.0 0.02 0.39 0.39 83 997.9
20211203155004 40 0 0.0 0.0 0.02 0.39 0.39 83 997.7
20211203154004 42 0 0.0 0.0 0.03 0.39 0.39 83 997.7
20211203153005 42 348 0.0 1.0 0.03 0.39 0.39 83 997.8
20211203152004 43 0 0.0 0.0 0.03 0.38 0.38 83 997.7
20211203151004 43 0 0.0 0.0 0.03 0.38 0.38 83 997.9
20211203150004 43 348 0.0 3.0 0.02 0.37 0.37 83 998.1
20211203145004 44 349 1.0 5.0 0.03 0.37 0.37 83 998.2
20211203144004 44 348 0.0 3.0 0.02 0.36 0.36 83 998.2
20211203143004 44 0 0.0 0.0 0.03 0.36 0.36 83 998.3
20211203142004 43 348 0.0 1.0 0.02 0.35 0.35 83 998.4
20211203141002 43 0 0.0 0.0 0.03 0.35 0.35 83 998.6
20211203140002 43 0 0.0 0.0 0.04 0.35 0.35 83 998.6
20211203135003 43 0 0.0 0.0 0.03 0.35 0.34 83 998.7
20211203134002 43 0 0.0 0.0 0.04 0.35 0.34 83 998.8
20211203133003 43 0 0.0 0.0 0.04 0.34 0.33 83 999.0
20211203132003 43 0 0.0 0.0 0.04 0.34 0.33 83 999.0
20211203131003 43 0 0.0 0.0 0.04 0.34 0.32 83 999.2
20211203130002 43 348 0.0 2.0 0.04 0.33 0.31 83 999.2
20211203125002 43 348 0.0 2.0 0.04 0.33 0.31 82 999.4
20211203124003 43 0 0.0 0.0 0.04 0.32 0.30 81 999.4
20211203123003 43 353 0.0 4.0 0.04 0.31 0.29 81 999.6
20211203122002 43 33 0.0 2.0 0.05 0.31 0.29 79 999.7
20211203121004 43 33 0.0 1.0 0.05 0.31 0.28 78 999.8
20211203120002 42 33 0.0 2.0 0.05 0.30 0.27 77 1000.0
20211203115002 42 36 1.0 5.0 0.06 0.30 0.27 77 1000.0
20211203114002 42 46 1.0 5.0 0.05 0.29 0.26 77 1000.0
20211203113003 42 47 2.0 3.0 0.05 0.28 0.25 76 1000.2
20211203112002 42 46 0.0 4.0 0.05 0.27 0.24 76 1000.4
20211203111002 42 46 1.0 2.0 0.05 0.26 0.23 76 1000.5
20211203110003 42 46 0.0 2.0 0.05 0.25 0.22 76 1000.5
20211203105003 42 0 0.0 0.0 0.04 0.24 0.21 76 1000.5
20211203104002 41 0 0.0 0.0 0.05 0.24 0.21 75 1000.7
20211203103003 41 46 1.0 2.0 0.05 0.23 0.20 75 1000.5
20211203102003 41 77 1.0 4.0 0.04 0.22 0.19 75 1000.2
20211203101003 40 0 0.0 0.0 0.03 0.21 0.18 76 1000.2
20211203100002 40 0 0.0 0.0 0.02 0.20 0.17 76 1000.1
20211203095003 40 121 1.0 4.0 0.02 0.20 0.17 76 999.9
20211203094002 39 128 0.0 3.0 0.01 0.19 0.16 77 999.9
20211203093003 39 134 1.0 3.0 0.00 0.18 0.15 77 999.8
20211203092003 37 142 0.0 3.0 0.00 0.18 0.15 78 999.7
20211203091002 36 0 0.0 0.0 0.00 0.18 0.15 79 1000.0
20211203090002 35 0 0.0 0.0 0.00 0.18 0.15 79 1000.3
20211203085003 35 0 0.0 0.0 0.00 0.18 0.15 79 1000.1
20211203084003 34 0 0.0 0.0 0.01 0.18 0.15 80 999.9
20211203083003 36 142 0.0 2.0 0.01 0.18 0.15 79 999.8
20211203082003 36 0 0.0 0.0 0.01 0.18 0.15 79 999.8
20211203081003 35 0 0.0 0.0 0.02 0.18 0.15 80 999.9
20211203080003 36 0 0.0 0.0 0.02 0.18 0.15 80 999.8
20211203075003 38 144 0.0 1.0 0.02 0.18 0.15 79 999.8
20211203074002 37 0 0.0 0.0 0.01 0.17 0.14 80 999.7
20211203073003 36 0 0.0 0.0 0.01 0.17 0.14 80 999.5
20211203072003 37 0 0.0 0.0 0.02 0.17 0.14 80 999.4
20211203071003 38 0 0.0 0.0 0.01 0.16 0.13 80 999.4
20211203070003 38 0 0.0 0.0 0.02 0.16 0.13 80 999.3
20211203065003 38 0 0.0 0.0 0.02 0.16 0.13 80 999.3
20211203064003 38 0 0.0 0.0 0.02 0.16 0.13 80 999.3
20211203063003 38 0 0.0 0.0 0.02 0.16 0.13 80 999.3
20211203062003 38 0 0.0 0.0 0.02 0.15 0.12 80 999.2
20211203061003 38 0 0.0 0.0 0.03 0.15 0.12 80 999.3
20211203060003 37 0 0.0 0.0 0.02 0.14 0.11 80 999.4
20211203055003 37 0 0.0 0.0 0.02 0.14 0.11 81 999.3
20211203054003 37 144 0.0 3.0 0.02 0.14 0.11 81 999.3
20211203053003 37 144 0.0 3.0 0.03 0.14 0.11 81 999.3
20211203052003 37 0 0.0 0.0 0.02 0.13 0.10 81 999.5
20211203051003 37 143 0.0 4.0 0.02 0.12 0.09 81 999.5
20211203050003 37 146 0.0 2.0 0.02 0.12 0.09 81 999.5
20211203045003 37 149 1.0 4.0 0.02 0.12 0.09 81 999.8
20211203044003 37 152 1.0 8.0 0.02 0.12 0.09 81 1000.0
20211203043003 37 138 1.0 6.0 0.02 0.11 0.08 81 1000.0
20211203042003 37 150 2.0 9.0 0.02 0.11 0.08 82 1000.0
20211203041003 37 145 1.0 9.0 0.03 0.10 0.07 82 1000.3
20211203040004 36 144 1.0 3.0 0.04 0.10 0.07 82 1000.5
20211203035003 36 158 2.0 9.0 0.06 0.10 0.07 82 1000.7
20211203034002 36 150 0.0 11.0 0.05 0.09 0.06 82 1000.9
20211203033003 36 113 0.0 4.0 0.06 0.09 0.06 82 1001.0
20211203032003 36 117 0.0 3.0 0.06 0.09 0.06 82 1001.2
20211203031003 36 149 1.0 4.0 0.04 0.07 0.04 83 1001.2
20211203030003 36 117 0.0 4.0 0.03 0.06 0.03 83 1001.3
20211203025003 36 138 0.0 7.0 0.01 0.04 0.01 83 1001.6
20211203024003 35 155 0.0 4.0 0.01 0.04 0.01 83 1001.6
20211203023003 35 141 0.0 4.0 0.00 0.03 0.00 83 1001.8
20211203022003 35 110 0.0 4.0 0.00 0.03 0.00 84 1002.0
20211203021003 35 150 1.0 5.0 0.00 0.03 0.00 84 1002.3
20211203020003 35 141 1.0 7.0 0.00 0.03 0.00 84 1002.5
20211203015003 35 146 1.0 5.0 0.00 0.03 0.00 84 1002.8
20211203014003 35 153 0.0 8.0 0.00 0.03 0.00 84 1003.1
20211203013003 35 164 1.0 6.0 0.00 0.03 0.00 84 1003.5
20211203012004 35 142 1.0 4.0 0.00 0.03 0.00 85 1003.5
20211203011004 35 151 1.0 7.0 0.00 0.03 0.00 85 1003.5
20211203010004 35 148 0.0 5.0 0.00 0.03 0.00 85 1003.5
20211203005003 34 145 0.0 3.0 0.00 0.03 0.00 85 1003.7
20211203004003 34 137 0.0 4.0 0.00 0.03 0.00 85 1004.2
20211203003003 34 94 0.0 4.0 0.00 0.03 0.00 85 1004.3
20211203002004 34 0 0.0 0.0 0.00 0.03 0.00 86 1004.4
20211203001003 34 0 0.0 0.0 0.00 0.03 0.00 86 1004.7
20211203000004 34 140 0.0 1.0 0.00 0.03 0.00 86 1004.9
20211202235003 34 153 0.0 4.0 0.00 0.03 0.03 86 1005.0
20211202234004 34 153 0.0 4.0 0.00 0.03 0.03 86 1005.3
20211202233003 33 150 0.0 3.0 0.00 0.03 0.03 86 1005.7
20211202232003 33 148 0.0 3.0 0.00 0.03 0.03 86 1005.8
20211202231004 33 154 0.0 3.0 0.00 0.03 0.03 86 1006.1
20211202230004 33 98 0.0 3.0 0.00 0.03 0.03 87 1006.3
20211202225003 32 150 0.0 3.0 0.00 0.03 0.03 86 1006.4